Wind_Speed
23 23 24 25 26 27 29 29 30 28 29 29 30 30 31 33 33 33 33 35 35 35 35 37 37 37 37 37 38 38 38 39 39 39 38 38 38 38 38 37 37 37 37 38
23 23 23 24 24 26 28 28 28 28 28 28 29 29 29 30 32 32 32 33 35 35 35 36 36 36 36 37 37 38 38 39 39 39 39 39 38 39 38 38 38 38 38 39
22 22 23 24 24 25 27 27 27 27 27 29 29 29 28 29 30 31 33 33 33 34 35 35 36 36 36 36 37 37 38 38 39 39 39 39 38 38 39 39 39 38 38 39
21 22 23 23 23 24 26 27 28 27 27 29 29 29 29 29 29 30 32 33 33 33 34 35 35 36 36 36 36 37 38 38 38 38 38 39 38 38 38 38 38 39 39 39
20 21 23 22 22 23 25 25 26 26 26 28 29 30 30 29 29 30 31 32 32 33 33 34 35 35 35 35 35 36 37 37 38 38 38 38 38 38 38 38 38 39 39 39
18 20 21 21 22 23 24 24 25 25 25 26 28 29 29 29 28 29 31 31 31 32 33 34 35 35 35 35 35 35 36 37 37 37 38 38 38 38 38 38 38 38 39 39
18 19 20 20 21 22 23 23 24 24 24 25 26 28 29 29 29 29 31 31 31 32 33 34 35 35 35 34 34 34 35 35 36 37 37 38 38 38 38 38 38 38 38 39
19 19 18 19 20 21 22 23 24 24 24 24 25 27 29 29 29 28 29 31 31 32 32 33 34 35 35 34 34 34 33 34 35 36 36 36 37 37 37 37 38 38 38 38
18 17 17 18 20 20 21 22 23 24 23 23 24 25 27 28 28 29 29 30 31 31 32 32 33 33 34 34 33 33 33 33 33 35 35 36 36 36 36 36 36 37 37 37
17 17 17 18 19 20 21 21 22 22 23 23 23 24 26 27 28 29 29 29 29 30 30 31 32 32 33 33 33 32 32 32 33 33 34 35 35 35 35 35 35 36 36 37
18 18 18 19 19 19 20 21 22 22 23 23 23 24 25 26 26 27 28 28 29 29 30 31 31 31 31 31 32 32 32 32 32 32 33 33 34 34 34 35 35 35 35 35
16 17 18 18 19 19 19 20 21 22 22 23 23 24 25 26 26 26 26 27 28 29 29 29 30 30 30 31 31 31 32 32 32 32 32 32 33 33 33 33 33 34 34 33
14 15 16 17 18 19 19 20 20 21 22 22 23 23 24 25 26 26 26 26 27 28 28 29 29 29 29 30 30 31 31 31 32 31 31 31 31 31 31 31 32 32 31 31
14 15 15 16 17 18 19 20 20 20 21 22 22 23 24 24 25 25 25 25 26 26 27 28 28 29 29 29 29 30 30 30 30 30 30 30 30 29 29 29 28 28 28 28
13 14 15 15 17 17 18 18 19 20 21 21 22 22 23 24 25 25 25 25 26 26 26 27 28 28 28 28 28 28 28 28 28 28 28 28 28 27 27 26 26 25 26 26
14 14 14 15 15 16 16 17 18 19 20 20 21 22 23 24 25 25 25 26 26 26 26 26 26 27 27 27 28 27 26 26 26 26 27 27 26 26 25 24 24 23 23 23
15 15 16 16 16 16 16 16 17 17 18 19 20 21 22 23 24 25 25 25 24 25 25 25 25 26 26 26 26 26 25 25 25 26 26 25 25 25 24 24 23 22 21 20
15 15 15 16 17 17 18 17 17 17 17 18 18 19 20 21 23 24 25 25 24 23 23 23 24 24 25 24 24 24 24 24 24 23 24 24 24 23 23 22 22 21 20 20
15 15 16 16 17 17 18 18 18 18 18 18 18 18 19 19 21 22 23 23 23 23 23 23 24 24 24 23 23 23 23 22 22 22 22 22 22 22 21 21 20 20 20 20
15 16 16 17 17 18 18 18 18 18 18 18 18 18 18 19 19 20 20 21 21 21 22 22 22 23 23 23 23 22 22 21 21 21 21 21 20 20 20 20 20 20 21 21
15 15 16 17 18 18 18 18 18 19 18 18 17 17 18 18 19 19 19 19 20 20 20 21 21 21 22 22 21 20 20 20 20 20 20 20 20 20 19 20 20 20 20 20
15 15 16 17 17 18 18 18 18 19 19 19 18 18 19 19 19 19 20 20 20 20 20 20 20 21 21 21 20 20 19 19 18 18 19 19 19 19 19 19 19 20 20 20
15 15 15 16 16 16 17 18 18 18 19 19 19 19 19 19 20 20 20 20 20 19 20 20 20 20 20 21 21 20 20 19 18 18 18 18 19 19 18 19 19 19 20 20
16 15 15 15 15 15 15 16 16 17 17 18 19 19 19 19 19 19 19 19 19 18 18 18 18 19 20 20 21 20 20 20 19 19 19 19 19 19 19 19 19 20 19 19
16 16 16 15 15 15 15 15 16 17 17 17 17 18 18 19 19 19 19 18 18 18 18 17 17 17 18 19 20 20 20 19 19 19 20 20 20 20 20 20 19 19 18 18
15 16 16 15 14 14 15 15 15 16 16 16 16 16 16 17 17 18 18 18 18 18 18 18 18 18 17 18 18 19 19 19 19 19 19 19 19 19 19 19 18 18 17 16
16 16 15 15 15 14 14 14 14 14 14 13 13 14 14 14 15 16 16 16 17 17 17 17 17 17 17 17 17 18 18 18 18 18 18 18 18 17 17 17 16 15 14 13
Wind_Direction
234 236 237 236 234 233 233 234 235 234 235 236 238 238 237 236 236 235 234 233 233 233 234 234 235 236 238 239 239 240 242 244 246 248 250 252 255 258 260 262 264 267 270 273
235 236 237 236 234 233 233 235 236 235 235 235 236 235 235 235 234 234 234 233 233 233 234 234 235 237 238 240 241 241 243 244 246 248 250 252 255 258 261 263 265 267 270 273
235 235 239 237 234 235 235 235 237 237 235 234 234 234 233 232 232 232 233 232 232 233 234 234 235 237 239 241 242 243 244 245 247 249 251 253 255 259 261 264 266 268 271 273
238 237 241 238 236 237 237 236 238 238 237 236 234 232 230 230 231 232 231 231 232 233 235 236 237 238 239 241 243 244 245 246 248 250 252 254 256 259 262 265 267 270 272 274
241 242 244 240 238 237 238 237 238 239 238 236 233 232 230 229 230 231 232 231 233 235 235 236 237 238 240 241 244 246 247 248 249 250 253 255 256 259 262 265 268 271 273 276
242 243 245 243 240 239 239 239 237 240 240 237 234 233 231 232 233 233 235 234 234 236 237 238 238 239 240 242 244 246 248 249 250 251 252 254 256 258 262 265 268 271 273 276
243 247 249 244 241 239 240 239 238 239 239 239 238 235 233 235 236 236 236 237 236 237 239 239 239 240 242 243 245 246 248 249 250 252 253 254 256 258 262 265 268 270 273 276
245 249 249 244 240 239 239 238 238 239 240 240 239 237 236 236 238 237 237 238 238 238 239 240 240 241 243 245 246 248 249 250 251 252 254 255 257 259 262 265 268 271 274 276
247 250 250 246 243 242 240 239 239 240 241 242 240 238 237 237 238 238 237 238 239 240 240 240 240 242 244 245 247 249 250 251 253 254 255 256 258 260 263 265 268 271 274 276
248 248 247 247 245 244 243 241 240 242 242 242 243 240 239 239 239 239 239 237 239 240 241 240 241 243 245 246 246 248 250 252 253 255 257 258 260 262 264 266 269 271 274 276
250 249 250 247 248 247 245 244 244 244 243 243 243 241 239 239 240 240 240 239 239 241 242 241 242 245 246 247 247 249 251 253 256 257 259 260 261 264 266 267 268 270 272 274
257 253 251 249 248 247 246 246 246 246 244 242 243 243 242 241 241 242 241 241 241 242 244 244 245 246 247 248 249 250 253 255 257 259 260 261 262 264 266 267 268 269 270 272
258 256 252 250 247 246 246 246 246 246 246 244 245 245 245 243 242 242 242 242 242 243 245 246 247 247 248 249 250 251 253 255 256 258 260 262 263 264 265 266 268 269 271 272
258 257 252 250 250 249 249 248 247 247 247 247 247 247 246 244 242 242 242 242 243 244 246 247 247 247 247 249 250 251 253 254 255 257 259 261 263 263 264 265 266 268 270 271
259 258 253 251 251 252 253 252 250 249 248 248 247 247 246 243 241 241 242 243 244 246 248 248 248 247 247 249 250 251 252 254 255 257 258 260 262 262 263 263 265 267 269 271
260 258 255 252 251 252 254 255 254 251 249 249 248 247 246 243 240 239 241 243 244 246 247 248 248 247 247 248 249 250 252 253 253 255 258 260 261 261 262 263 265 267 268 269
259 257 255 254 252 252 254 255 254 251 249 249 250 249 248 246 242 239 241 243 245 246 247 247 247 247 245 245 246 249 251 252 253 254 256 257 258 259 261 263 265 266 267 266
259 257 255 254 252 251 253 256 255 251 248 249 250 250 249 247 244 242 241 242 245 247 247 246 245 245 245 244 246 249 251 252 253 253 254 255 257 259 261 263 263 264 263 264
260 259 258 257 256 254 254 255 256 253 249 250 250 250 249 247 244 242 241 241 243 246 248 246 245 245 244 243 245 247 248 249 251 252 253 255 258 260 261 262 262 260 260 265
264 263 261 258 257 256 257 257 256 253 250 249 249 249 248 246 244 242 241 241 243 245 247 247 245 244 242 242 243 244 244 246 247 250 253 254 256 259 259 259 259 261 263 267
268 266 264 261 258 258 258 256 254 251 250 248 247 247 248 247 244 241 239 241 243 245 246 245 242 241 240 239 239 239 240 242 244 247 250 253 256 258 258 258 260 262 265 267
269 269 267 265 262 260 259 257 253 251 250 249 248 246 247 247 246 245 243 243 244 245 245 244 241 240 239 237 237 236 237 239 242 245 249 253 255 255 256 257 260 263 265 267
268 269 269 267 264 263 261 257 254 251 249 247 246 246 247 246 246 246 245 243 243 244 244 242 240 238 236 235 236 236 237 239 242 246 250 252 252 252 254 257 259 263 265 267
268 268 269 269 267 264 260 256 254 252 249 247 247 247 246 246 245 244 242 242 242 242 241 240 240 238 237 235 235 236 238 241 245 247 248 249 250 252 254 256 260 264 265 266
268 268 268 268 266 263 260 256 253 251 250 250 249 248 247 246 245 244 242 241 241 240 240 240 239 238 237 236 236 238 241 244 246 248 248 249 250 253 255 258 261 261 261 262
269 268 268 266 265 263 260 257 253 251 250 250 248 246 245 245 243 241 240 240 240 239 239 240 239 239 239 239 238 240 243 245 245 246 247 248 250 252 255 257 257 257 257 256
270 269 267 265 263 261 259 255 252 250 250 248 246 245 242 241 240 238 237 237 236 236 238 239 240 240 241 242 243 244 244 242 241 243 246 248 250 252 253 254 254 252 250 251
Height
5546 5549 5552 5554 5557 5560 5562 5565 5569 5573 5575 5579 5581 5585 5588 5591 5595 5599 5603 5606 5611 5615 5618 5622 5626 5629 5633 5636 5640 5643 5646 5649 5652 5654 5657 5659 5660 5661 5662 5663 5664 5664 5664 5663
5541 5543 5545 5548 5551 5553 5556 5559 5562 5565 5568 5571 5574 5577 5580 5584 5587 5591 5594 5598 5602 5606 5610 5613 5617 5621 5624 5627 5631 5634 5637 5640 5643 5645 5647 5649 5651 5652 5653 5654 5654 5654 5654 5654
5536 5538 5539 5542 5545 5546 5549 5552 5555 5557 5562 5563 5566 5569 5573 5576 5579 5583 5586 5590 5593 5597 5601 5605 5608 5612 5615 5618 5622 5625 5628 5631 5633 5636 5638 5640 5641 5643 5644 5644 5645 5645 5644 5644
5530 5533 5534 5539 5539 5541 5543 5545 5548 5551 5553 5556 5559 5562 5565 5568 5572 5575 5578 5582 5585 5589 5592 5596 5600 5603 5606 5609 5612 5615 5618 5621 5624 5626 5628 5630 5632 5633 5634 5635 5635 5635 5634 5634
5525 5527 5528 5532 5533 5534 5537 5539 5541 5544 5546 5549 5551 5554 5558 5561 5564 5567 5570 5574 5577 5581 5584 5587 5591 5594 5598 5601 5603 5606 5609 5612 5614 5617 5619 5620 5622 5623 5624 5625 5625 5625 5625 5624
5520 5521 5523 5527 5528 5529 5532 5533 5535 5537 5539 5541 5544 5548 5552 5554 5557 5560 5563 5566 5569 5573 5576 5579 5582 5585 5589 5592 5595 5597 5600 5602 5605 5607 5609 5611 5612 5613 5614 5615 5615 5615 5615 5614
5514 5515 5517 5520 5521 5523 5527 5528 5529 5531 5533 5535 5537 5541 5544 5546 5549 5552 5555 5558 5561 5564 5567 5570 5574 5577 5580 5583 5586 5588 5590 5593 5595 5597 5599 5600 5602 5603 5604 5605 5605 5605 5605 5604
5509 5510 5514 5514 5515 5518 5519 5521 5522 5524 5526 5528 5531 5533 5536 5539 5542 5545 5548 5550 5553 5556 5559 5562 5565 5569 5571 5574 5577 5579 5581 5584 5586 5587 5589 5591 5592 5593 5594 5595 5595 5595 5595 5594
5505 5508 5507 5508 5509 5511 5513 5514 5516 5518 5520 5522 5524 5526 5529 5532 5534 5537 5540 5543 5545 5548 5551 5554 5557 5560 5563 5565 5568 5570 5572 5574 5576 5578 5579 5581 5582 5584 5584 5585 5585 5585 5585 5584
5499 5501 5501 5503 5504 5505 5507 5509 5510 5512 5514 5516 5518 5520 5522 5525 5527 5530 5532 5535 5538 5541 5544 5546 5549 5551 5554 5556 5559 5561 5563 5565 5567 5568 5570 5571 5572 5574 5574 5575 5575 5575 5574 5574
5494 5495 5496 5497 5498 5500 5501 5503 5504 5506 5508 5509 5511 5513 5515 5518 5520 5523 5525 5528 5531 5533 5536 5539 5541 5543 5546 5548 5550 5552 5554 5556 5558 5559 5560 5562 5563 5564 5564 5565 5565 5565 5564 5563
5489 5490 5491 5492 5493 5494 5495 5497 5498 5500 5501 5503 5505 5507 5509 5511 5513 5515 5518 5521 5523 5526 5529 5531 5533 5535 5537 5540 5542 5544 5546 5547 5549 5550 5552 5552 5553 5554 5554 5554 5554 5554 5553 5553
5484 5484 5485 5486 5487 5488 5489 5491 5492 5493 5495 5496 5498 5500 5502 5504 5506 5508 5511 5514 5516 5519 5521 5523 5525 5527 5529 5531 5533 5535 5537 5539 5540 5541 5542 5543 5544 5544 5545 5545 5545 5545 5544 5544
5479 5479 5480 5481 5482 5482 5484 5485 5486 5487 5489 5490 5491 5493 5495 5497 5499 5501 5504 5506 5509 5511 5513 5515 5517 5519 5521 5523 5525 5527 5528 5530 5532 5533 5534 5534 5535 5535 5536 5536 5536 5536 5536 5535
5474 5474 5475 5476 5476 5477 5478 5479 5480 5481 5482 5484 5485 5486 5488 5490 5492 5494 5496 5499 5501 5503 5504 5506 5508 5511 5513 5515 5517 5519 5520 5522 5523 5524 5525 5526 5527 5527 5527 5528 5528 5528 5527 5527
5469 5469 5470 5470 5471 5472 5472 5473 5474 5475 5476 5477 5478 5480 5481 5483 5485 5487 5489 5491 5493 5495 5497 5499 5501 5503 5505 5507 5509 5511 5512 5513 5514 5516 5517 5518 5519 5519 5520 5520 5520 5520 5520 5520
5464 5464 5465 5465 5466 5467 5467 5468 5468 5469 5470 5471 5472 5473 5474 5476 5478 5480 5482 5484 5486 5488 5490 5492 5493 5495 5497 5499 5501 5503 5504 5505 5507 5508 5509 5510 5511 5512 5513 5513 5513 5513 5513 5513
5459 5459 5459 5460 5461 5461 5462 5462 5463 5463 5464 5465 5466 5467 5468 5469 5471 5473 5475 5477 5479 5481 5483 5485 5486 5488 5490 5492 5493 5495 5496 5498 5499 5500 5502 5503 5504 5505 5505 5506 5506 5507 5507 5507
5453 5454 5454 5454 5455 5456 5456 5457 5457 5458 5459 5459 5460 5461 5462 5463 5465 5466 5468 5471 5473 5475 5476 5478 5479 5481 5483 5484 5486 5488 5489 5491 5492 5494 5495 5496 5497 5498 5499 5499 5500 5501 5501 5501
5448 5448 5448 5449 5449 5450 5451 5451 5451 5452 5453 5454 5455 5455 5457 5458 5459 5460 5462 5464 5466 5468 5469 5471 5472 5474 5476 5477 5479 5481 5482 5484 5486 5487 5489 5490 5491 5492 5492 5493 5494 5495 5495 5495
5443 5443 5443 5443 5443 5444 5444 5445 5445 5446 5447 5448 5449 5450 5451 5452 5453 5455 5457 5458 5460 5461 5463 5464 5466 5467 5469 5471 5473 5474 5476 5478 5479 5481 5483 5484 5485 5486 5487 5487 5488 5489 5489 5489
5437 5437 5437 5437 5438 5438 5438 5439 5439 5440 5441 5442 5443 5444 5445 5446 5447 5449 5451 5452 5454 5455 5457 5458 5459 5461 5462 5465 5467 5469 5470 5472 5474 5475 5477 5478 5479 5480 5481 5481 5482 5482 5483 5483
5432 5432 5432 5432 5432 5432 5432 5432 5433 5434 5435 5436 5437 5438 5439 5440 5441 5443 5444 5446 5447 5449 5450 5452 5453 5455 5456 5458 5461 5463 5465 5467 5468 5470 5471 5472 5473 5474 5475 5476 5476 5477 5477 5477
5426 5426 5426 5426 5426 5426 5426 5426 5427 5427 5428 5429 5430 5431 5433 5434 5435 5437 5438 5440 5441 5443 5444 5446 5447 5449 5450 5452 5455 5457 5459 5461 5462 5463 5465 5466 5467 5468 5469 5469 5470 5470 5470 5471
5420 5420 5420 5420 5420 5420 5420 5420 5421 5422 5423 5423 5424 5425 5426 5428 5429 5431 5433 5434 5436 5437 5439 5441 5442 5444 5445 5447 5449 5451 5453 5454 5456 5457 5458 5460 5461 5462 5463 5463 5463 5464 5464 5464
5414 5414 5414 5414 5414 5414 5415 5415 5416 5416 5417 5418 5418 5419 5421 5422 5424 5425 5427 5429 5431 5432 5434 5436 5437 5439 5440 5442 5444 5445 5447 5448 5449 5451 5452 5453 5454 5455 5456 5457 5457 5458 5458 5459
5408 5408 5408 5408 5409 5409 5409 5410 5411 5411 5412 5413 5413 5414 5416 5417 5418 5420 5422 5424 5425 5427 5429 5430 5432 5434 5435 5437 5438 5439 5441 5442 5444 5445 5446 5448 5449 5450 5450 5451 5452 5452 5453 5454